Location: Balive
(16.8123°N, 81.0164°E)
Time: 06:33:50
(UTC+00:00)

Daily predictions for brighter satellites

Satellite Brightness Start Highest point End
(mag) Time Altitude Azimuth Time Altitude Azimuth Time Altitude Azimuth
Okean 2 3.4 13:34:30 10° S 13:38:35 70° E 13:42:42 10° N
Delta 2 Rocket 2.9 13:36:33 10° SW 13:39:53 50° SE 13:43:06 10° ENE
Cosmos 1470 3.0 13:36:16 10° N 13:40:04 50° E 13:43:52 10° SSE
Delta 202 3.8 13:37:27 10° WSW 13:42:35 51° SSE 13:48:04 10° E
Cosmos 1626 2.0 13:39:30 10° S 13:43:06 70° E 13:46:42 10° N
Cosmos 2084 4.1 13:41:50 10° S 13:45:14 27° ESE 13:48:33 10° NE
Cosmos 2278 Rocket 4.0 13:40:27 10° NW 13:45:22 32° WSW 13:50:18 10° SSW
Milstar 3 4.2 13:39:14 10° SSW 13:46:22 34° SE 13:57:52 10° E
USA 186 3.6 13:46:04 10° E 13:46:52 11° ENE 13:47:40 10° ENE
Cosmos 1782 Rocket 3.8 13:42:59 10° N 13:47:27 78° W 13:51:53 10° S
Cosmos 1655 Rocket 4.1 13:44:27 10° N 13:50:46 88° E 13:57:08 10° S
GPS 2-14 Rocket1 3.5 13:47:19 10° W 13:51:17 50° N 13:55:15 10° ENE
H-2A R/B 3.4 13:51:14 10° NE 13:54:32 20° E 13:57:49 10° SSE
ARGOS Delta rocket 4.3 13:53:46 10° NE 13:57:47 32° E 14:01:42 10° SSE
Hubble Space Telescope 2.0 13:56:17 10° NW 14:00:01 33° NNE 14:03:30 11° E
Sich 1 Rocket 4.1 13:57:37 10° NNE 14:01:55 41° E 14:05:53 12° SSE
Fermi 3.9 14:05:38 10° WNW 14:09:44 65° NNE 14:12:28 20° E
Cosmos 1378 Rocket 3.5 14:05:48 10° S 14:10:13 83° E 14:14:38 10° N
USA 305 4.3 14:07:51 10° N 14:11:13 24° NE 14:13:03 18° E
Cosmos 1943 Rocket 2.2 14:09:30 10° NNW 14:15:05 81° WSW 14:20:36 10° SSE
SJ-6B 3.4 14:13:30 23° SE 14:15:11 35° ENE 14:18:38 10° N
Okean 2 Rocket 3.4 14:11:26 10° N 14:15:39 45° E 14:18:19 20° SSE
CZ-2C R/B 2.4 14:12:04 10° WNW 14:15:48 33° SW 14:18:10 18° SSE
Cosmos 2297 3.7 14:10:55 10° N 14:16:34 71° ENE 14:21:03 16° SSE
Meteor 2-17 Rocket 4.3 14:11:44 10° N 14:17:47 78° E 14:23:48 10° S
Cosmos 1674 Rocket 3.7 14:13:37 10° S 14:17:54 72° W 14:22:13 10° N
H-2A R/B 3.3 14:17:05 24° ESE 14:18:08 27° ENE 14:21:23 10° NNE
IGS 5A 4.4 14:17:28 24° ESE 14:18:46 28° ENE 14:22:20 10° NNE
Cosmos 2151 Rocket 3.9 14:15:51 10° N 14:20:10 45° E 14:22:32 24° SE
Cosmos 1238 Rocket 4.4 14:16:46 10° NNE 14:22:32 42° E 14:26:22 21° SE
GOES 2 Rocket 3.6 14:18:34 10° SW 14:22:56 46° SSE 14:26:36 19° E
Cosmos 1269 Rocket 4.0 14:19:17 10° NNW 14:24:34 87° ENE 14:28:46 17° SSE
CZ-4 R/B 2.9 14:21:06 10° SSW 14:24:57 36° W 14:28:48 10° NNW
Cosmos 1437 Rocket 2.9 14:21:38 10° N 14:25:34 55° E 14:27:21 29° SSE
Cosmos 2056 Rocket 3.9 14:20:44 10° SSE 14:25:35 39° E 14:30:33 10° NNE
Okean-O 2.6 14:23:42 22° SSE 14:26:23 62° ENE 14:30:45 10° N
Intercosmos 25 3.4 14:24:31 10° N 14:28:02 70° E 14:31:41 18° SSE
Cosmos 1553 Rocket 4.1 14:23:29 10° S 14:29:46 82° W 14:36:08 10° N
Okean O Rocket 4.0 14:28:57 10° SSW 14:32:15 21° W 14:35:35 10° NW
Cosmos 1420 Rocket 4.5 14:32:17 30° SE 14:33:50 36° E 14:38:36 10° NE
Cosmos 1607 4.0 14:28:32 10° SSW 14:34:50 80° WNW 14:41:04 10° NNE
Atlas Centaur 2 4.0 14:34:53 10° NW 14:38:13 17° N 14:41:09 10° NE
OBJECT-B 2.2 14:36:47 18° SSW 14:38:20 30° W 14:40:54 10° NW
SL-14 R/B 4.1 14:36:01 10° SSW 14:39:43 50° W 14:43:28 10° N
Meteor 2-5 Rocket 4.2 14:38:57 33° ESE 14:39:51 36° E 14:44:49 10° NNE
CSL-04 Debris 4.3 14:40:04 18° S 14:44:05 75° WSW 14:49:28 10° NNW
ATLAS CENTAUR Rocket 3.9 14:39:22 10° WNW 14:44:47 25° N 14:47:42 11° NE
S3M 3.9 14:39:23 10° S 14:45:39 79° E 14:51:50 10° N
USA 267 3.1 14:40:46 10° NE 14:47:16 72° SE 14:53:47 10° SSW
GPS 2-17 Rocket1 3.3 14:43:21 10° W 14:47:44 62° N 14:49:26 35° ENE
Cosmos 1908 3.7 14:46:06 10° NNW 14:49:53 57° W 14:51:21 33° SSW
SL-08 R/B 4.4 14:44:49 10° N 14:51:03 68° E 14:53:44 35° SSE
deb Chang Zheng 4 4.2 14:49:08 24° SSW 14:51:21 49° WSW 14:55:24 10° NNW
IRS-1C Rocket 4.3 14:50:08 24° S 14:53:21 67° WSW 14:58:34 10° NNW
CZ-4B R/B 3.5 14:51:46 10° NNE 14:52:25 16° NNE 14:52:25 16° NNE
USA 306 2.6 14:51:11 10° NNW 14:55:18 79° NE 14:55:26 78° E
COBE Rocket 4.5 14:53:24 21° SSW 14:56:16 51° W 15:00:47 10° NNW
Okean 1 Rocket 3.1 14:53:11 10° N 14:57:26 62° ENE 14:57:26 62° ENE
Mugunghwa Rocket 4.5 14:58:57 10° SW 15:06:52 65° SSE 15:10:47 35° E
Aurora 2 Rocket 4.0 14:59:14 10° WSW 15:09:05 74° SSE 15:12:13 40° E
Cosmos 1386 Rocket 4.5 15:03:51 10° N 15:10:10 67° E 15:11:16 57° SE
Cosmos 883 Rocket 4.4 15:07:55 37° S 15:10:38 84° E 15:16:57 10° N
Cosmos 2369 Rocket 2.3 15:09:21 10° NNW 15:14:55 69° WSW 15:16:07 53° SSW
Cosmos 1656 Rocket 3.5 15:10:47 10° NNW 15:16:19 86° WSW 15:16:53 73° S
Cosmos 1975 Rocket 3.3 15:16:42 70° NW 15:16:42 70° NW 15:20:48 10° N
Meteor 2-10 Rocket 3.9 15:11:47 10° N 15:15:40 47° NE 15:15:40 47° NE
Meteor 1-24 Rocket 3.4 15:18:36 79° ENE 15:18:36 79° ENE 15:23:41 10° N
USA 307 3.8 15:17:50 10° NW 15:20:56 45° WNW 15:20:56 45° WNW
IRAS Rocket 4.3 15:16:26 10° N 15:21:58 73° WNW 15:23:51 42° SSW
NOSS 3-4 (A) 4.4 15:15:08 10° N 15:22:29 47° ENE 15:23:29 45° E
NOSS 3-4 (C) 4.4 15:15:15 10° N 15:22:34 46° ENE 15:23:31 44° E
IRS-1A Rocket 4.3 15:26:27 72° ENE 15:26:27 72° ENE 15:32:12 10° N
Cosmos 1745 Rocket 3.9 15:24:06 10° N 15:30:16 83° W 15:30:53 73° SSW
GPS 2-14 Rocket1 4.5 15:28:10 10° WNW 15:30:34 31° NW 15:30:34 31° NW
Cosmos 1953 4.0 15:28:42 10° NNW 15:31:41 30° WNW 15:31:41 30° WNW
GEOS 3 Rocket 3.9 15:35:30 59° N 15:35:30 59° N 15:39:40 10° NNW
ATLAS 3B CENTAUR R/B 3.7 15:23:30 10° WNW 15:38:12 81° NNE 15:41:23 54° E
Hubble Space Telescope 3.0 15:37:10 10° WNW 15:38:44 22° W 15:38:44 22° W
Resurs 01 Rocket 3.3 15:49:50 31° NW 15:49:50 31° NW 15:52:24 10° NNW
Delta 202 4.3 15:46:38 10° W 15:50:43 54° W 15:50:43 54° W
Milstar 3 4.5 16:20:26 10° WSW 16:31:27 81° NNW 16:54:32 10° ENE
ATLAS 2AS CENTAUR R/B 4.4 17:00:32 10° NNW 17:03:09 25° N 17:03:09 25° N
Cosmos 2219 Rocket 4.5 20:27:04 10° NNE 20:29:23 20° NE 20:29:23 20° NE
Cosmos 2333 Rocket 4.4 20:50:45 10° NNW 20:52:14 19° N 20:52:14 19° N
USA 215 3.8 20:55:15 10° NE 21:00:07 54° NE 21:00:07 54° NE
SL-16 R/B 3.9 21:13:10 29° NNW 21:13:10 29° NNW 21:15:59 10° NNW
Cosmos 2227 Rocket 3.3 21:18:11 40° NNE 21:18:11 40° NNE 21:21:43 10° NNE
ARIANE 5 R/B 4.2 21:21:55 10° NE 21:26:06 26° E 21:26:19 26° ESE
FENGYUN 3A 4.1 21:30:08 10° NNE 21:34:47 60° NE 21:34:47 60° NE
Cosmos 2263 Rocket 4.0 21:35:50 19° SE 21:37:36 22° ESE 21:41:51 10° NE
Cosmos 2219 3.9 21:40:32 45° NNW 21:40:32 45° NNW 21:44:37 10° N
COSMOS 2428 3.2 21:38:16 10° NNW 21:42:25 51° NNW 21:42:25 51° NNW
Cosmos 1937 Rocket 4.5 21:40:03 10° NNW 21:43:13 38° NNW 21:43:13 38° NNW
CZ-3C R/B 2.4 21:45:24 65° NNW 21:45:49 68° N 22:03:48 10° E
Cosmos 2297 Rocket 3.9 21:48:35 20° NW 21:48:35 20° NW 21:51:05 10° NNW
Meteor 1-27 Rocket 3.8 21:41:22 10° N 21:46:54 68° E 21:47:18 66° ESE
Milstar 3 Cent rocket 3.9 21:49:51 18° SE 21:49:51 18° SE 21:52:45 10° E
MOS 1-B Rocket 4.2 21:48:01 49° SSE 21:49:56 82° ENE 21:57:05 10° N
ATLAS CENTAUR R/B 3.6 21:50:42 19° ESE 21:51:21 20° ESE 21:54:39 10° ENE
BREEZE-M TANK 3.4 21:54:46 44° NE 21:54:46 44° NE 21:57:06 10° NE
Cosmos 2237 Rocket 3.8 21:50:33 10° N 21:55:35 33° ENE 22:00:34 10° SE
Timation 2 Rocket 4.5 21:54:31 40° SSE 21:56:19 52° ESE 22:02:23 10° NNE
SL-24 R/B - RUBIN 2 3.9 21:57:34 78° NE 21:57:34 78° NE 22:02:03 10° NNE
PAYLOAD A 4.0 21:55:53 10° N 22:01:18 85° WNW 22:01:37 79° SW
Cosmos 2346 Rocket 4.3 22:09:49 52° SSW 22:11:25 82° W 22:17:29 10° N
ATLAS 3B R/B 4.2 22:07:25 12° SSE 22:12:02 26° ESE 22:17:16 10° NE
Centaur D-1AR AC-36 3.4 22:10:24 36° S 22:12:26 47° SE 22:37:09 10° ENE
Okean 1 4.5 22:09:29 10° NNE 22:13:11 40° E 22:14:55 25° SE
Delta 2 Rocket 3.9 22:12:14 38° NNW 22:13:48 64° NNE 22:18:43 10° ESE
Meteor 1-5 Rocket 4.3 22:12:40 36° SSE 22:14:52 70° E 22:20:09 10° NNE
Cosmos 2219 Rocket 4.5 22:10:56 10° NW 22:11:01 10° NW 22:11:01 10° NW
NOSS 0 Rocket 3.8 22:10:36 10° NNW 22:16:45 86° WSW 22:22:52 10° SSE
Helios 1B rocket 4.2 22:14:41 10° NNW 22:16:29 21° NW 22:16:29 21° NW
CZ-2C R/B 2.7 22:15:12 10° N 22:19:07 45° WNW 22:19:07 45° WNW
METEOR-M 4.0 22:20:06 10° N 22:25:25 75° WNW 22:27:15 42° SSW
IRS-1C 4.3 22:20:54 10° N 22:26:00 49° WNW 22:26:52 45° WSW
IRIDIUM 104 4.2 22:24:31 45° SSW 22:26:03 71° W 22:31:15 10° N
Cosmos 1666 4.5 22:27:52 20° NW 22:27:52 20° NW 22:29:24 10° NNW
Cosmos 1805 Rocket 3.9 22:26:43 47° WNW 22:26:43 47° WNW 22:30:40 10° N
Cosmos 1515 Rocket 4.2 22:24:47 10° NNW 22:28:03 38° WNW 22:28:03 38° WNW
Cosmos 1315 Rocket 2.7 22:30:09 65° WSW 22:30:21 66° W 22:34:20 10° N
GPS 2-18 Rocket1 4.4 22:30:38 27° SSE 22:30:38 27° SSE 22:33:37 10° E
Cosmos 1666 Rocket 4.0 22:28:50 23° SSE 22:31:26 59° E 22:35:46 10° NNE
Cosmos 2098 Rocket 4.0 22:33:39 22° NNW 22:33:39 22° NNW 22:34:53 10° NNW
Cosmos 389 Rocket 4.1 22:31:21 16° SSE 22:33:34 32° E 22:36:42 10° NNE
Cosmos 2228 Rocket 4.2 22:29:28 10° NNE 22:33:43 44° E 22:38:01 10° SSE
Meteor 2-13 Rocket 4.3 22:30:54 25° S 22:34:37 78° W 22:40:46 10° N
IRIDIUM 114 4.4 22:33:39 40° SW 22:35:11 55° W 22:40:17 10° N
Cosmos 773 Rocket 4.0 22:33:00 27° S 22:35:55 80° ESE 22:41:08 10° NNE
Cosmos 1484 Rocket 2.6 22:33:52 10° N 22:37:45 86° WNW 22:38:56 43° SSW
Sich 1 3.4 22:37:56 42° W 22:38:10 42° W 22:42:15 10° NNW
CZ-2D R/B 3.7 22:36:52 10° N 22:40:57 50° WNW 22:41:57 41° WSW
Aurora 2 Rocket 1.9 22:43:23 51° S 22:43:23 51° S 22:46:04 10° SE
Cosmos 1816 Rocket 4.4 22:39:57 19° SSW 22:44:36 73° W 22:50:44 10° N
ALOS 3.7 22:41:29 10° NNW 22:44:45 20° WNW 22:44:45 20° WNW
CZ-2C R/B 4.3 22:45:29 10° SE 22:50:24 36° ENE 22:55:24 10° N
PSLV R/B 4.0 22:47:01 10° NNE 22:51:07 57° E 22:55:12 10° S
Mugunghwa Rocket 4.5 22:46:16 10° WNW 22:54:48 89° SSW 23:02:30 10° ESE
Cosmos 1980 3.8 22:50:55 10° NNW 22:56:23 51° WSW 23:01:50 10° S
Cosmos 405 3.6 22:56:17 31° W 22:56:33 32° W 22:59:37 10° NNW
Tsikada Rocket 4.0 22:50:28 10° S 22:56:48 81° W 23:03:03 10° N
Cosmos 1072 Rocket 4.5 22:50:51 10° NNW 22:57:10 67° W 23:03:25 10° S
Cosmos 371 Rocket 3.6 22:52:33 10° N 22:57:21 71° ENE 23:02:08 10° SSE
Cosmos 1378 2.9 22:54:41 10° N 22:58:21 75° W 23:02:01 10° S
Cosmos 2227 4.2 22:57:34 14° SSW 23:02:26 81° WNW 23:08:10 10° NNE
ARIANE 5 R/B 3.9 23:01:11 10° NNW 23:04:55 21° WNW 23:06:40 18° W
H-2A R/B 2.9 23:01:56 10° NNE 23:05:39 73° E 23:09:24 10° S
SWIFT 2.2 23:04:53 16° W 23:08:05 77° SSW 23:12:13 10° ESE
Cosmos 1707 Rocket 4.0 23:05:15 10° N 23:09:37 64° E 23:14:00 10° SSE
Cosmos 1743 3.2 23:06:24 10° S 23:10:06 60° E 23:13:49 10° NNE
SL-16 R/B 3.3 23:05:00 10° N 23:10:29 49° ENE 23:15:55 10° SE
Spot 4 Rocket 4.5 23:05:41 10° N 23:10:31 43° WNW 23:14:47 13° SW
Cosmos 2298 Rocket 4.1 23:05:53 10° NNW 23:11:12 85° ENE 23:16:31 10° SSE
Meteor 1-11 Rocket 3.9 23:07:05 10° S 23:13:02 87° E 23:19:00 10° N
YAOGAN 6 3.2 23:13:16 10° N 23:16:33 36° WNW 23:19:09 14° SW
Cosmos 304 Rocket 4.2 23:12:28 10° N 23:17:12 67° ENE 23:21:55 10° SSE
MINOTAUR 4 R/B 4.5 23:15:04 10° SSE 23:18:32 65° ENE 23:22:00 10° N
Envisat 3.2 23:14:20 10° N 23:19:14 52° WNW 23:24:09 10° SSW
Meteor 2-4 Rocket 3.8 23:14:04 10° NNW 23:19:39 64° W 23:25:23 10° S
Cosmos 2263 Rocket 3.2 23:17:33 15° WSW 23:21:14 28° WNW 23:25:58 10° NNW
Cosmos 1818 3.6 23:16:30 10° SSW 23:21:55 82° WNW 23:27:22 10° NNE
Cosmos 1536 2.8 23:20:19 10° SSW 23:24:18 68° W 23:28:18 10° N
CZ-2C R/B 2.8 23:21:58 10° N 23:26:48 84° WNW 23:31:32 10° SSW
CZ-4B R/B 3.7 23:22:58 10° N 23:27:52 52° WNW 23:32:37 10° SSW
IUS R/B (1) 3.1 23:27:25 10° W 23:29:32 35° N 23:34:08 10° ENE
ATLAS CENTAUR R/B 3.0 23:26:44 12° WSW 23:29:51 23° WNW 23:33:34 10° N
Cosmos 1538 Rocket 4.0 23:26:01 10° SSW 23:31:18 78° WNW 23:36:33 10° N
Cosmos 2034 Rocket 4.2 23:26:55 10° NNW 23:32:51 51° W 23:38:45 10° SSW
Cosmos 1346 Rocket 4.4 23:32:20 10° NW 23:34:42 16° W 23:37:06 10° SW
ASTRO E2 3.8 23:31:09 10° NW 23:34:52 44° NNE 23:38:35 10° E
GPS 2-15 Rocket1 3.1 23:32:53 10° WSW 23:37:41 88° S 23:42:25 10° E
CZ-2C R/B 4.0 23:34:44 10° NNW 23:38:00 25° WNW 23:41:16 10° SW
SJ-12 4.0 23:34:21 10° N 23:38:24 62° WNW 23:42:27 10° SSW
Cosmos 2237 Rocket 3.5 23:35:28 10° WNW 23:39:16 19° WSW 23:43:04 10° SW
COSMOS 2455 3.4 23:34:20 10° NW 23:39:41 34° WSW 23:45:01 10° S
CZ-4C R/B 4.1 23:38:17 10° SSE 23:41:10 18° ESE 23:44:10 10° ENE
Meteor 1-31 Rocket 3.5 23:38:48 10° NNE 23:42:37 57° E 23:46:27 10° S
Cosmos 1844 Rocket 3.1 23:39:36 10° S 23:45:10 68° ESE 23:50:43 10° NNE
VEP-3 4.4 23:22:26 10° W 23:50:20 60° N 23:56:48 10° ENE
